DW7249 Cayey PR US current weather conditions

sailwx.info

Wind from 106 at 4 knots gusting 6

Air temperature 27.2° C
Dewpoint 21.7° C

Last reported at 2019-Dec-06 15:01 UTC.
Time now 2019-Dec-06 15:27 UTC

Location: N 18°08' W 066°08'.
View on Google Maps.

See reports from other nearby stations

  
Tides and Currents Weather Stations Pressure Air Temp Water Temp Dewpoint Dewpoint Depression Visibility Wind Speed Wind Dir Waves Ship Positions
date/time (UTC)wind fromknots sea level pressurealtimeterstation pressurevisibilityair tempwater tempwave heightnotes
2019-Dec-06 15:01 106 4 gusting 6 27.2
2019-Dec-06 14:47 113 1 gusting 10 26.7
2019-Dec-06 14:32 131 5 gusting 8 26.7
2019-Dec-06 14:16 086 2 gusting 6 26.1
2019-Dec-06 14:02 150 3 gusting 6 26.1
2019-Dec-06 13:46 122 1 gusting 6 26.1
2019-Dec-06 13:31 158 1 gusting 6 26.1
2019-Dec-06 13:16 143 0 gusting 4 25.6
2019-Dec-06 13:01 108 1 gusting 2 25.6
2019-Dec-06 12:45 120 24.4
2019-Dec-06 12:31 123 0 gusting 3 23.3
2019-Dec-06 12:16 337 22.2
2019-Dec-06 12:00 321 21.7
2019-Dec-06 11:45 022 21.1
2019-Dec-06 11:30 020 21.1
2019-Dec-06 11:15 019 20.6
2019-Dec-06 11:00 019 20.0
2019-Dec-06 10:45 019 20.0
2019-Dec-06 10:30 051 20.0
2019-Dec-06 10:15 051 19.4
2019-Dec-06 10:00 085 19.4
2019-Dec-06 09:45 085 20.0
2019-Dec-06 09:30 040 19.4
2019-Dec-06 09:15 001 19.4
2019-Dec-06 09:00 074 19.4
2019-Dec-06 08:45 075 20.0
2019-Dec-06 08:30 038 20.0
2019-Dec-06 08:15 036 20.0
2019-Dec-06 08:00 036 20.0
2019-Dec-06 07:45 036 20.0
2019-Dec-06 07:30 003 20.6
2019-Dec-06 07:15 001 20.6
2019-Dec-06 07:00 005 20.6
2019-Dec-06 06:45 056 20.6
2019-Dec-06 06:30 057 20.6
2019-Dec-06 06:16 043 20.6
2019-Dec-06 06:01 037 20.6
2019-Dec-06 05:46 098 20.6
2019-Dec-06 05:32 023 20.6
2019-Dec-06 05:16 020 20.6
2019-Dec-06 05:03 076 20.6
2019-Dec-06 04:46 068 20.6
2019-Dec-06 04:31 025 20.6
2019-Dec-06 04:16 030 20.6
2019-Dec-06 04:01 064 20.6
2019-Dec-06 03:47 064 21.1
2019-Dec-06 03:30 063 21.1
2019-Dec-06 03:17 063 21.1
2019-Dec-06 03:01 065 21.1
2019-Dec-06 02:46 065 21.1
2019-Dec-06 02:32 065 21.1
2019-Dec-06 02:16 056 21.7
2019-Dec-06 02:01 056 21.7
2019-Dec-06 01:46 074 21.7
2019-Dec-06 01:31 072 21.7
2019-Dec-06 01:16 072 21.7
2019-Dec-06 01:01 072 22.2
2019-Dec-06 00:46 097 22.2
2019-Dec-06 00:31 086 22.2
2019-Dec-06 00:16 077 22.8
2019-Dec-06 00:01 032 22.8
2019-Dec-05 23:46 044 22.8
2019-Dec-05 23:31 049 23.3
2019-Dec-05 23:17 117 23.9
2019-Dec-05 23:01 118 23.9
2019-Dec-05 22:45 155 23.9
2019-Dec-05 22:31 128 24.4
2019-Dec-05 22:16 150 0 gusting 3 24.4
2019-Dec-05 22:01 118 24.4
2019-Dec-05 21:46 134 0 gusting 4 25.0
2019-Dec-05 21:31 149 1 gusting 3 25.6
2019-Dec-05 21:16 154 0 gusting 3 25.6
2019-Dec-05 21:00 166 1 gusting 6 26.1
2019-Dec-05 20:46 253 2 gusting 6 26.7
2019-Dec-05 20:30 091 2 gusting 6 27.2
2019-Dec-05 20:15 181 1 gusting 5 27.2
2019-Dec-05 20:01 169 1 gusting 6 27.2
2019-Dec-05 19:45 149 2 gusting 6 26.1
2019-Dec-05 19:31 143 0 gusting 6 26.7
2019-Dec-05 19:15 174 2 gusting 7 27.2
2019-Dec-05 19:01 139 1 gusting 5 26.7
2019-Dec-05 18:45 162 6 gusting 12 27.8
2019-Dec-05 18:30 176 3 gusting 7 27.8
2019-Dec-05 18:15 153 3 gusting 9 27.2
2019-Dec-05 18:00 207 3 gusting 6 27.8
2019-Dec-05 17:45 155 3 gusting 8 27.8
2019-Dec-05 17:30 177 4 gusting 8 27.8
2019-Dec-05 17:15 132 4 gusting 8 28.3
2019-Dec-05 17:00 155 2 gusting 9 28.3
2019-Dec-05 16:45 169 2 gusting 6 28.9
2019-Dec-05 16:30 159 3 gusting 8 28.9
2019-Dec-05 16:16 141 4 gusting 8 28.9
2019-Dec-05 16:02 200 4 gusting 9 28.9
2019-Dec-05 15:46 173 2 gusting 8 28.9
2019-Dec-05 15:31 146 2 gusting 6 28.9
2019-Dec-05 15:16 105 1 gusting 6 27.8
2019-Dec-05 15:03 131 1 gusting 6 27.8
2019-Dec-05 14:47 110 2 gusting 6 27.2
2019-Dec-05 14:31 114 0 gusting 4 27.2
2019-Dec-05 14:17 162 1 gusting 4 27.2
2019-Dec-05 14:01 134 1 gusting 4 27.2
2019-Dec-05 13:46 115 27.2
2019-Dec-05 13:31 110 26.7
2019-Dec-05 13:17 113 25.0
2019-Dec-05 13:01 335 23.9
2019-Dec-05 12:46 358 0 gusting 2 23.3
2019-Dec-05 12:30 351 22.8
2019-Dec-05 12:16 049 22.8
2019-Dec-05 12:00 051 21.7
2019-Dec-05 11:45 146 21.1
2019-Dec-05 11:30 316 0 gusting 3 20.0
2019-Dec-05 11:15 329 0 gusting 3 20.0
2019-Dec-05 11:00 060 0 gusting 5 20.0
2019-Dec-05 10:45 345 2 gusting 3 19.4
2019-Dec-05 10:30 016 19.4
2019-Dec-05 10:15 118 20.0
2019-Dec-05 10:00 341 0 gusting 4 20.0
2019-Dec-05 09:45 335 1 gusting 3 19.4
2019-Dec-05 09:30 022 20.0
2019-Dec-05 09:15 342 1 gusting 3 19.4
2019-Dec-05 09:00 335 19.4
2019-Dec-05 08:45 343 1 gusting 3 19.4
2019-Dec-05 08:31 043 19.4
2019-Dec-05 08:16 008 19.4
2019-Dec-05 08:02 070 19.4
2019-Dec-05 07:46 160 19.4
2019-Dec-05 07:32 030 19.4
2019-Dec-05 07:17 023 19.4
2019-Dec-05 07:01 130 19.4
2019-Dec-05 06:46 025 19.4
2019-Dec-05 06:32 062 19.4
2019-Dec-05 06:16 060 19.4
2019-Dec-05 06:02 059 20.0
2019-Dec-05 05:46 060 20.0
2019-Dec-05 05:31 335 20.0
2019-Dec-05 05:16 357 1 gusting 3 20.0
2019-Dec-05 05:01 068 20.0
2019-Dec-05 04:46 068 20.6
2019-Dec-05 04:31 068 20.6
2019-Dec-05 04:16 066 20.6
2019-Dec-05 04:00 044 20.6
2019-Dec-05 03:45 043 20.6
2019-Dec-05 03:30 094 20.6
2019-Dec-05 03:15 095 21.1
2019-Dec-05 03:02 094 21.1
2019-Dec-05 02:45 040 21.1
2019-Dec-05 02:31 038 21.7
2019-Dec-05 02:15 098 21.7
2019-Dec-05 02:00 331 0 gusting 3 21.7
2019-Dec-05 01:45 330 2 gusting 4 21.7
2019-Dec-05 01:31 354 21.7
2019-Dec-05 01:15 076 21.7
2019-Dec-05 01:00 076 22.2
2019-Dec-05 00:45 026 22.2
2019-Dec-05 00:30 008 22.2
2019-Dec-05 00:16 087 22.2
2019-Dec-05 00:00 088 22.8
2019-Dec-04 23:45 087 22.8
2019-Dec-04 23:31 087 23.3
2019-Dec-04 23:15 122 23.3
2019-Dec-04 23:00 101 23.3
2019-Dec-04 22:45 101 23.9
2019-Dec-04 22:30 094 23.9
2019-Dec-04 22:15 095 23.9
2019-Dec-04 22:00 105 24.4
2019-Dec-04 21:45 120 0 gusting 3 24.4
2019-Dec-04 21:30 125 0 gusting 2 25.0
2019-Dec-04 21:15 060 25.0
2019-Dec-04 21:00 090 24.4
2019-Dec-04 20:45 100 24.4
2019-Dec-04 20:30 103 24.4
2019-Dec-04 20:15 101 24.4
2019-Dec-04 20:00 096 25.0
2019-Dec-04 19:45 148 25.0
2019-Dec-04 19:30 129 0 gusting 2 25.0
2019-Dec-04 19:15 096 25.0
2019-Dec-04 19:00 038 25.0
2019-Dec-04 18:45 128 0 gusting 3 25.0
2019-Dec-04 18:30 159 0 gusting 3 25.6
2019-Dec-04 18:15 168 0 gusting 3 26.1
2019-Dec-04 18:00 172 0 gusting 6 26.1
2019-Dec-04 17:45 148 1 gusting 4 25.6
2019-Dec-04 17:30 160 3 gusting 9 26.7
2019-Dec-04 17:15 159 4 gusting 7 27.8
2019-Dec-04 17:02 131 3 gusting 6 27.2
2019-Dec-04 16:46 179 1 gusting 5 26.7
2019-Dec-04 16:32 198 2 gusting 6 27.2
2019-Dec-04 16:16 177 3 gusting 8 27.8
2019-Dec-04 16:06 163 1 gusting 4 27.8
2019-Dec-04 15:47 120 1 gusting 4 26.7
2019-Dec-04 15:32 113 1 gusting 6 26.1
2019-Dec-04 15:16 127 2 gusting 6 25.6
2019-Dec-04 15:02 158 4 gusting 7 27.2